Showing default

CONNECTA T1.2, 55012

Orbit data source: Space-Track

CONNECTA T1.2, 55012 is a payload satellite owned by Plan-S (TR) in SSO that was launched on Tue, 03 Jan 2023 UTC via an FALCON 9 launch vehicle from the Air Force Eastern Test Range (AFETR). Payload-class satellites include a variety of spacecraft equipped with specific instruments for various scientific and technological missions. These include communications satellites like Starlink; space stations such as the ISS; scientific satellites like the Hubble; Earth observation satellites from companies like Planet Labs, Umbra, and HawkEye 360; GPS; miniature CubeSats for education and research; and military/defense satellites.

Loading next visibility...
Identifier
55012, 2023-001D
Orbit
SSO
Country
Flag of UnknownUnknown / TURK
Related business
Manufacturer
Plan-S
Mission
Operational Commercial Communications
Bus & Motor
CUBESAT 3U, Unknown motor
Mass
4 kg wet, 4 kg dry
Launch date (UTC)
2023-01-03 (3 years ago)
Launch vehicle
FALCON 9
Launch site
Air Force Eastern Test Range (AFETR)
Object type
Payload
Rocket body
Debris
Shape & HBR
Box, 1.2 m
Radar Cross Section
0.035 m², Medium (>0.1 m² and < 1m²)

Expand to show TLE details & history
Last TLE update: 12 hours ago

TLE from 12 hours ago
0 CONNECTA T1.2
1 55012U 23001D   25345.15826544  .00019443  00000-0  48441-3 0  9998
2 55012  97.3558  48.8324 0008617  66.4704 293.7446 15.40238038163515
Epoch: 2025-12-11T03:47Z
TLE epoch observation values (Epoch: 2025-12-11T03:47:54.134Z)
Latitude
-0.00013°
Longitude
-88.2614°
Altitude
446.162 km
Speed
7.646 km/s
True Right ascension
03h 15m 19s
True Declination
0° 00' 00"
Sunlit
Object was in full shadow at epoch
Visualization orbit readout
Latitude
Unknown
Longitude
Unknown
Altitude
Unknown
Speed
Unknown
Apparent Right ascension
Unknown
Apparent Declination
Unknown
Sunlit
N/A
Visualization observer readout
Local Sidereal Time
13:52:24
Azimuth
Unknown
Elevation
Unknown
Doppler factor
Unknown
Orbital elements
Apogee altitude
448.22 km
Perigee altitude
436.466 km
Semi-major axis
6,820.48 km
Eccentricity
0.00086
Inclination
97.3558°
RAAN
48.8324°
Arg. of periapsis
66.4704°
True anomaly
293.65418°
Mean anomaly
293.7446°
Eccentric anomaly
293.69939°
Mean motion
3.85319 °/min
Orbital period
93.43 mins
BSTAR
0.00048441
Loading maneuver chart data...
Computing Atmospheric mass density...

Documentation

Showing up to 5 results
|